Location: Bogotá
(4.6533°N, 74.0837°W)
Time: 08:52:18
(UTC+00:00)

ISS - Pass Details

Date: 12 July 2024
Orbit: 409 x 423 km, 51.6° (Epoch: 24 July)

Event Time Altitude Azimuth Distance (km) Brightness Sun altitude
Rises 09:00:56 0° 353° (N) 2,341 0.3 -25.9°
Reaches altitude 10° 09:03:50 10° 21° (NNE) 1,485 -0.4 -25.2°
Maximum altitude 09:05:35 14° 53° (NE) 1,293 -0.4 -24.8°
Drops below altitude 10° 09:07:19 10° 84° (E) 1,492 -0.1 -24.4°
Sets 09:10:15 0° 112° (ESE) 2,362 0.6 -23.8°
